Location: Austin
(30.3000°N, 97.7500°W)
Time: 11:59:31
(UTC-05:00)

Thor Agena Rocket - Pass Details

Date: 03 April 2024
Orbit: 756 x 806 km, 99.1° (Epoch: 21 April)

Event Time Altitude Azimuth Distance (km) Brightness Sun altitude
Rises 05:40:57 0° 360° (N) 3,222 7.0 -21.0°
Reaches altitude 10° 05:43:28 10° 350° (N) 2,290 6.1 -20.5°
Enters shadow 05:47:50 31° 290° (WNW) 1,309 4.3 -19.6°
